Location: Kergonan
(48.2337°N, 4.5518°W)
Time: 21:44:33
(UTC+00:00)

NOSS 2-2 (D) - Pass Details

Date: 18 January 2020
Orbit: 485 x 1724 km, 63.3° (Epoch: 21 February)

Event Time Altitude Azimuth Distance (km) Brightness Sun altitude
Exits shadow 06:37:38 - 229° (SW) 1,813 5.6 -13.8°
Reaches altitude 10° 06:37:58 10° 230° (SW) 1,677 5.5 -13.7°
Maximum altitude 06:41:34 67° 314° (NW) 570 3.1 -13.1°
Drops below altitude 10° 06:45:46 10° 38° (NE) 1,949 6.4 -12.5°
Sets 06:48:18 0° 41° (NE) 3,006 7.4 -12.1°
